Terug naar catalogus

CZ-6A DEB

ActiefSSO
NORAD 54925·DEBRIS·🇨🇳 China

Gelanceerd Nov 11, 2022 vanaf Taiyuan Satellite Launch Center

Loading…

Volgende Passages (komende 24 uur)

TLE

VersSource: Space-Track

Epoch: Sep 14, 2026, 11:07 UTC

1 54925U 22151RN  26257.46336005  .00000681  00000-0  38125-3 0  9992
2 54925  98.8399 261.7824 0042244  71.5963 288.9796 14.13553367197307

Volg CZ-6A DEB in realtime met AllMySat

Download on the App Store